Year,Month,Day,Hour,Minute,Value (Times are PST for windgust in km/hr)
2019,08,21,00,00,20.90
2019,08,21,00,01,8.10
2019,08,21,00,02,33.80
2019,08,21,00,03,25.70
2019,08,21,00,04,12.90
2019,08,21,00,05,19.30
2019,08,21,00,06,12.90
2019,08,21,00,07,17.70
2019,08,21,00,08,17.70
2019,08,21,00,09,24.20
2019,08,21,00,10,16.10
2019,08,21,00,11,20.90
2019,08,21,00,12,29.00
2019,08,21,00,13,30.60
2019,08,21,00,14,24.20
2019,08,21,00,15,19.30
2019,08,21,00,16,37.00
2019,08,21,00,17,35.40
2019,08,21,00,18,17.70
2019,08,21,00,19,12.90
2019,08,21,00,20,22.50
2019,08,21,00,21,25.70
2019,08,21,00,22,30.60
2019,08,21,00,23,25.70
2019,08,21,00,24,12.90
2019,08,21,00,25,1.60
2019,08,21,00,26,24.20
2019,08,21,00,27,17.70
2019,08,21,00,28,9.60
2019,08,21,00,29,17.70
2019,08,21,00,30,17.70
2019,08,21,00,31,16.10
2019,08,21,00,32,20.90
2019,08,21,00,33,32.20
2019,08,21,00,34,30.60
2019,08,21,00,35,17.70
2019,08,21,00,36,25.70
2019,08,21,00,37,33.80
2019,08,21,00,38,20.90
2019,08,21,00,39,12.90
2019,08,21,00,40,24.20
2019,08,21,00,41,16.10
2019,08,21,00,42,17.70
2019,08,21,00,43,19.30
2019,08,21,00,44,29.00
2019,08,21,00,45,27.40
2019,08,21,00,46,19.30
2019,08,21,00,47,17.70
2019,08,21,00,48,27.40
2019,08,21,00,49,30.60
2019,08,21,00,50,20.90
2019,08,21,00,51,29.00
2019,08,21,00,52,17.70
2019,08,21,00,53,12.90
2019,08,21,00,54,24.20
2019,08,21,00,55,19.30
2019,08,21,00,56,11.30
2019,08,21,00,57,22.50
2019,08,21,00,58,16.10
2019,08,21,00,59,24.20
2019,08,21,01,00,22.50
2019,08,21,01,01,20.90
2019,08,21,01,02,14.50
2019,08,21,01,03,9.60
2019,08,21,01,04,16.10
2019,08,21,01,05,22.50
2019,08,21,01,06,22.50
2019,08,21,01,07,33.80
2019,08,21,01,08,14.50
2019,08,21,01,09,22.50
2019,08,21,01,10,25.70
2019,08,21,01,11,22.50
2019,08,21,01,12,22.50
2019,08,21,01,13,14.50
2019,08,21,01,14,16.10
2019,08,21,01,15,24.20
2019,08,21,01,16,20.90
2019,08,21,01,17,19.30
2019,08,21,01,18,14.50
2019,08,21,01,19,22.50
2019,08,21,01,20,16.10
2019,08,21,01,21,16.10
2019,08,21,01,22,29.00
2019,08,21,01,23,32.20
2019,08,21,01,24,25.70
2019,08,21,01,25,22.50
2019,08,21,01,26,29.00
2019,08,21,01,27,20.90
2019,08,21,01,28,29.00
2019,08,21,01,29,24.20
2019,08,21,01,30,17.70
2019,08,21,01,31,24.20
2019,08,21,01,32,20.90
2019,08,21,01,33,14.50
2019,08,21,01,34,19.30
2019,08,21,01,35,22.50
2019,08,21,01,36,20.90
2019,08,21,01,37,25.70
2019,08,21,01,38,25.70
2019,08,21,01,39,17.70
2019,08,21,01,40,20.90
2019,08,21,01,41,33.80
2019,08,21,01,42,16.10
2019,08,21,01,43,19.30
2019,08,21,01,44,9.60
2019,08,21,01,45,17.70
2019,08,21,01,46,19.30
2019,08,21,01,47,17.70
2019,08,21,01,48,19.30
2019,08,21,01,49,22.50
2019,08,21,01,50,20.90
2019,08,21,01,51,20.90
2019,08,21,01,52,29.00
2019,08,21,01,53,20.90
2019,08,21,01,54,24.20
2019,08,21,01,55,22.50
2019,08,21,01,56,19.30
2019,08,21,01,57,40.20
2019,08,21,01,58,22.50
2019,08,21,01,59,35.40
2019,08,21,02,00,29.00
2019,08,21,02,01,17.70
2019,08,21,02,02,45.10
2019,08,21,02,03,20.90
2019,08,21,02,04,22.50
2019,08,21,02,05,20.90
2019,08,21,02,06,27.40
2019,08,21,02,07,17.70
2019,08,21,02,08,30.60
2019,08,21,02,09,17.70
2019,08,21,02,10,37.00
2019,08,21,02,11,14.50
2019,08,21,02,12,12.90
2019,08,21,02,13,38.60
2019,08,21,02,14,27.40
2019,08,21,02,15,11.30
2019,08,21,02,16,24.20
2019,08,21,02,17,19.30
2019,08,21,02,18,25.70
2019,08,21,02,19,20.90
2019,08,21,02,20,20.90
2019,08,21,02,21,24.20
2019,08,21,02,22,20.90
2019,08,21,02,23,27.40
2019,08,21,02,24,22.50
2019,08,21,02,25,32.20
2019,08,21,02,26,35.40
2019,08,21,02,27,14.50
2019,08,21,02,28,20.90
2019,08,21,02,29,32.20
2019,08,21,02,30,32.20
2019,08,21,02,31,22.50
2019,08,21,02,32,20.90
2019,08,21,02,33,53.10
2019,08,21,02,34,41.80
2019,08,21,02,35,25.70
2019,08,21,02,36,22.50
2019,08,21,02,37,29.00
2019,08,21,02,38,27.40
2019,08,21,02,39,27.40
2019,08,21,02,40,32.20
2019,08,21,02,41,25.70
2019,08,21,02,42,24.20
2019,08,21,02,43,20.90
2019,08,21,02,44,16.10
2019,08,21,02,45,29.00
2019,08,21,02,46,30.60
2019,08,21,02,47,22.50
2019,08,21,02,48,25.70
2019,08,21,02,49,32.20
2019,08,21,02,50,12.90
2019,08,21,02,51,32.20
2019,08,21,02,52,22.50
2019,08,21,02,53,29.00
2019,08,21,02,54,19.30
2019,08,21,02,55,37.00
2019,08,21,02,56,25.70
2019,08,21,02,57,14.50
2019,08,21,02,58,25.70
2019,08,21,02,59,30.60
2019,08,21,03,00,22.50
2019,08,21,03,01,22.50
2019,08,21,03,02,17.70
2019,08,21,03,03,12.90
2019,08,21,03,04,35.40
2019,08,21,03,05,40.20
2019,08,21,03,06,19.30
2019,08,21,03,07,27.40
2019,08,21,03,08,17.70
2019,08,21,03,09,22.50
2019,08,21,03,10,22.50
2019,08,21,03,11,20.90
2019,08,21,03,12,22.50
2019,08,21,03,13,22.50
2019,08,21,03,14,14.50
2019,08,21,03,15,19.30
2019,08,21,03,16,19.30
2019,08,21,03,17,19.30
2019,08,21,03,18,32.20
2019,08,21,03,19,19.30
2019,08,21,03,20,16.10
2019,08,21,03,21,29.00
2019,08,21,03,22,22.50
2019,08,21,03,23,22.50
2019,08,21,03,24,29.00
2019,08,21,03,25,27.40
2019,08,21,03,26,29.00
2019,08,21,03,27,33.80
2019,08,21,03,28,14.50
2019,08,21,03,29,37.00
2019,08,21,03,30,30.60
2019,08,21,03,31,24.20
2019,08,21,03,32,22.50
2019,08,21,03,33,22.50
2019,08,21,03,34,22.50
2019,08,21,03,35,27.40
2019,08,21,03,36,25.70
2019,08,21,03,37,17.70
2019,08,21,03,38,29.00
2019,08,21,03,39,25.70
2019,08,21,03,40,35.40
2019,08,21,03,41,24.20
2019,08,21,03,42,32.20
2019,08,21,03,43,20.90
2019,08,21,03,44,30.60
2019,08,21,03,45,17.70
2019,08,21,03,46,19.30
2019,08,21,03,47,33.80
2019,08,21,03,48,35.40
2019,08,21,03,49,11.30
2019,08,21,03,50,25.70
2019,08,21,03,51,16.10
2019,08,21,03,52,16.10
2019,08,21,03,53,24.20
2019,08,21,03,54,27.40
2019,08,21,03,55,20.90
2019,08,21,03,56,29.00
2019,08,21,03,57,17.70
2019,08,21,03,58,27.40
2019,08,21,03,59,19.30
2019,08,21,04,00,14.50
2019,08,21,04,01,25.70
2019,08,21,04,02,22.50
2019,08,21,04,03,22.50
2019,08,21,04,04,19.30
2019,08,21,04,05,20.90
2019,08,21,04,06,40.20
2019,08,21,04,07,30.60
2019,08,21,04,08,17.70
2019,08,21,04,09,35.40
2019,08,21,04,10,24.20
2019,08,21,04,11,25.70
2019,08,21,04,12,12.90
2019,08,21,04,13,29.00
2019,08,21,04,14,33.80
2019,08,21,04,15,27.40
2019,08,21,04,16,32.20
2019,08,21,04,17,30.60
2019,08,21,04,18,19.30
2019,08,21,04,19,30.60
2019,08,21,04,20,17.70
2019,08,21,04,21,20.90
2019,08,21,04,22,17.70
2019,08,21,04,23,9.60
2019,08,21,04,24,33.80
2019,08,21,04,25,29.00
2019,08,21,04,26,22.50
2019,08,21,04,27,14.50
2019,08,21,04,28,30.60
2019,08,21,04,29,14.50
2019,08,21,04,30,12.90
2019,08,21,04,31,19.30
2019,08,21,04,32,27.40
2019,08,21,04,33,16.10
2019,08,21,04,34,14.50
2019,08,21,04,35,20.90
2019,08,21,04,36,25.70
2019,08,21,04,37,14.50
2019,08,21,04,38,12.90
2019,08,21,04,39,12.90
2019,08,21,04,40,20.90
2019,08,21,04,41,20.90
2019,08,21,04,42,30.60
2019,08,21,04,43,17.70
2019,08,21,04,44,20.90
2019,08,21,04,45,24.20
2019,08,21,04,46,27.40
2019,08,21,04,47,22.50
2019,08,21,04,48,14.50
2019,08,21,04,49,24.20
2019,08,21,04,50,20.90
2019,08,21,04,51,20.90
2019,08,21,04,52,24.20
2019,08,21,04,53,19.30
2019,08,21,04,54,12.90
2019,08,21,04,55,12.90
2019,08,21,04,56,12.90
2019,08,21,04,57,11.30
2019,08,21,04,58,19.30
2019,08,21,04,59,27.40
2019,08,21,05,00,19.30
2019,08,21,05,01,17.70
2019,08,21,05,02,14.50
2019,08,21,05,03,17.70
2019,08,21,05,04,20.90
2019,08,21,05,05,17.70
2019,08,21,05,06,19.30
2019,08,21,05,07,16.10
2019,08,21,05,08,19.30
2019,08,21,05,09,16.10
2019,08,21,05,10,12.90
2019,08,21,05,11,12.90
2019,08,21,05,12,17.70
2019,08,21,05,13,12.90
2019,08,21,05,14,14.50
2019,08,21,05,15,17.70
2019,08,21,05,16,14.50
2019,08,21,05,17,14.50
2019,08,21,05,18,12.90
2019,08,21,05,19,11.30
2019,08,21,05,20,9.60
2019,08,21,05,21,9.60
2019,08,21,05,22,27.40
2019,08,21,05,23,17.70
2019,08,21,05,24,14.50
2019,08,21,05,25,12.90
2019,08,21,05,26,12.90
2019,08,21,05,27,20.90
2019,08,21,05,28,9.60
2019,08,21,05,29,17.70
2019,08,21,05,30,19.30
2019,08,21,05,31,12.90
2019,08,21,05,32,17.70
2019,08,21,05,33,14.50
2019,08,21,05,34,14.50
2019,08,21,05,35,17.70
2019,08,21,05,36,14.50
2019,08,21,05,37,12.90
2019,08,21,05,38,12.90
2019,08,21,05,39,8.10
2019,08,21,05,40,14.50
2019,08,21,05,41,11.30
2019,08,21,05,42,17.70
2019,08,21,05,43,20.90
2019,08,21,05,44,11.30
2019,08,21,05,45,14.50
2019,08,21,05,46,12.90
2019,08,21,05,47,14.50
2019,08,21,05,48,20.90
2019,08,21,05,49,12.90
2019,08,21,05,50,9.60
2019,08,21,05,51,11.30
2019,08,21,05,52,17.70
2019,08,21,05,53,12.90
2019,08,21,05,54,14.50
2019,08,21,05,55,11.30
2019,08,21,05,56,14.50
2019,08,21,05,57,19.30
2019,08,21,05,58,11.30
2019,08,21,05,59,8.10
2019,08,21,06,00,12.90
2019,08,21,06,01,14.50
2019,08,21,06,02,11.30
2019,08,21,06,03,14.50
2019,08,21,06,04,14.50
2019,08,21,06,05,11.30
2019,08,21,06,06,22.50
2019,08,21,06,07,17.70
2019,08,21,06,08,17.70
2019,08,21,06,09,14.50
2019,08,21,06,10,14.50
2019,08,21,06,11,14.50
2019,08,21,06,12,11.30
2019,08,21,06,13,19.30
2019,08,21,06,14,11.30
2019,08,21,06,15,19.30
2019,08,21,06,16,12.90
2019,08,21,06,17,14.50
2019,08,21,06,18,19.30
2019,08,21,06,19,12.90
2019,08,21,06,20,11.30
2019,08,21,06,21,12.90
2019,08,21,06,22,14.50
2019,08,21,06,23,14.50
2019,08,21,06,24,11.30
2019,08,21,06,25,11.30
2019,08,21,06,26,14.50
2019,08,21,06,27,17.70
2019,08,21,06,28,17.70
2019,08,21,06,29,16.10
2019,08,21,06,30,14.50
2019,08,21,06,31,16.10
2019,08,21,06,32,16.10
2019,08,21,06,33,14.50
2019,08,21,06,34,17.70
2019,08,21,06,35,17.70
2019,08,21,06,36,14.50
2019,08,21,06,37,19.30
2019,08,21,06,38,11.30
2019,08,21,06,39,11.30
2019,08,21,06,40,12.90
2019,08,21,06,41,8.10
2019,08,21,06,42,9.60
2019,08,21,06,43,6.40
2019,08,21,06,44,3.20
2019,08,21,06,45,11.30
2019,08,21,06,46,9.60
2019,08,21,06,47,9.60
2019,08,21,06,48,3.20
2019,08,21,06,49,1.60
2019,08,21,06,50,3.20
2019,08,21,06,51,8.10
2019,08,21,06,52,8.10
2019,08,21,06,53,8.10
2019,08,21,06,54,6.40
2019,08,21,06,55,11.30
2019,08,21,06,56,9.60
2019,08,21,06,57,8.10
2019,08,21,06,58,9.60
2019,08,21,06,59,3.20
2019,08,21,07,00,6.40
2019,08,21,07,01,6.40
2019,08,21,07,02,9.60
2019,08,21,07,03,1.60
2019,08,21,07,04,9.60
2019,08,21,07,05,12.90
2019,08,21,07,06,9.60
2019,08,21,07,07,14.50
2019,08,21,07,08,11.30
2019,08,21,07,09,9.60
2019,08,21,07,10,11.30
2019,08,21,07,11,8.10
2019,08,21,07,12,9.60
2019,08,21,07,13,11.30
2019,08,21,07,14,14.50
2019,08,21,07,15,9.60
2019,08,21,07,16,9.60
2019,08,21,07,17,8.10
2019,08,21,07,18,8.10
2019,08,21,07,19,8.10
2019,08,21,07,20,8.10
2019,08,21,07,21,8.10
2019,08,21,07,22,3.20
2019,08,21,07,23,8.10
2019,08,21,07,24,8.10
2019,08,21,07,25,9.60
2019,08,21,07,26,8.10
2019,08,21,07,27,8.10
2019,08,21,07,28,9.60
2019,08,21,07,29,8.10
2019,08,21,07,30,9.60
2019,08,21,07,31,12.90
2019,08,21,07,32,8.10
2019,08,21,07,33,8.10
2019,08,21,07,34,6.40
2019,08,21,07,35,12.90
2019,08,21,07,36,9.60
2019,08,21,07,37,9.60
2019,08,21,07,38,3.20
2019,08,21,07,39,8.10
2019,08,21,07,40,6.40
2019,08,21,07,41,9.60
2019,08,21,07,42,9.60
2019,08,21,07,43,8.10
2019,08,21,07,44,11.30
2019,08,21,07,45,6.40
2019,08,21,07,46,9.60
2019,08,21,07,47,1.60
2019,08,21,07,48,6.40
2019,08,21,07,49,6.40
2019,08,21,07,50,8.10
2019,08,21,07,51,3.20
2019,08,21,07,52,1.60
2019,08,21,07,53,11.30
2019,08,21,07,54,6.40
2019,08,21,07,55,9.60
2019,08,21,07,56,6.40
2019,08,21,07,57,3.20
2019,08,21,07,58,6.40
2019,08,21,07,59,6.40
2019,08,21,08,00,6.40
2019,08,21,08,01,6.40
2019,08,21,08,02,1.60
2019,08,21,08,03,8.10
2019,08,21,08,04,8.10
2019,08,21,08,07,1.60
2019,08,21,08,08,8.10
2019,08,21,08,10,1.60
2019,08,21,08,12,9.60
2019,08,21,08,13,6.40
2019,08,21,08,14,6.40
2019,08,21,08,15,1.60
2019,08,21,08,16,8.10
2019,08,21,08,17,3.20
2019,08,21,08,18,3.20
2019,08,21,08,19,8.10
2019,08,21,08,20,8.10
2019,08,21,08,22,6.40
2019,08,21,08,23,4.80
2019,08,21,08,24,3.20
2019,08,21,08,25,1.60
2019,08,21,08,26,4.80
2019,08,21,08,27,9.60
2019,08,21,08,28,6.40
2019,08,21,08,29,4.80
2019,08,21,08,30,8.10
2019,08,21,08,31,8.10
2019,08,21,08,32,3.20
2019,08,21,08,33,3.20
2019,08,21,08,34,4.80
2019,08,21,08,38,4.80
2019,08,21,08,39,3.20
2019,08,21,08,40,4.80
2019,08,21,08,41,3.20
2019,08,21,08,42,4.80
2019,08,21,08,43,1.60
2019,08,21,08,45,1.60
2019,08,21,08,48,6.40
2019,08,21,08,49,6.40
2019,08,21,08,52,3.20
2019,08,21,08,53,3.20
2019,08,21,08,58,3.20
2019,08,21,08,59,3.20
2019,08,21,09,00,1.60
2019,08,21,09,02,3.20
2019,08,21,09,03,3.20
2019,08,21,09,05,4.80
2019,08,21,09,06,3.20
2019,08,21,09,07,1.60
2019,08,21,09,09,4.80
2019,08,21,09,10,6.40
2019,08,21,09,11,6.40
2019,08,21,09,12,3.20
2019,08,21,09,13,6.40
2019,08,21,09,14,8.10
2019,08,21,09,15,4.80
2019,08,21,09,16,6.40
2019,08,21,09,17,4.80
2019,08,21,09,18,8.10
2019,08,21,09,19,8.10
2019,08,21,09,20,3.20
2019,08,21,09,21,1.60
2019,08,21,09,22,6.40
2019,08,21,09,24,3.20
2019,08,21,09,25,9.60
2019,08,21,09,26,9.60
2019,08,21,09,27,12.90
2019,08,21,09,28,8.10
2019,08,21,09,29,12.90
2019,08,21,09,30,9.60
2019,08,21,09,31,6.40
2019,08,21,09,32,8.10
2019,08,21,09,33,12.90
2019,08,21,09,34,12.90
2019,08,21,09,35,11.30
2019,08,21,09,36,9.60
2019,08,21,09,37,4.80
2019,08,21,09,38,1.60
2019,08,21,09,39,8.10
2019,08,21,09,40,6.40
2019,08,21,09,41,4.80
2019,08,21,09,42,6.40
2019,08,21,09,43,4.80
2019,08,21,09,44,3.20
2019,08,21,09,45,9.60
2019,08,21,09,46,8.10
2019,08,21,09,47,12.90
2019,08,21,09,48,9.60
2019,08,21,09,49,14.50
2019,08,21,09,50,12.90
2019,08,21,09,51,6.40
2019,08,21,09,52,4.80
2019,08,21,09,53,11.30
2019,08,21,09,54,6.40
2019,08,21,09,55,9.60
2019,08,21,09,56,9.60
2019,08,21,09,57,9.60
2019,08,21,09,58,8.10
2019,08,21,09,59,8.10
2019,08,21,10,00,12.90
2019,08,21,10,01,8.10
2019,08,21,10,02,4.80
2019,08,21,10,03,16.10
2019,08,21,10,04,14.50
2019,08,21,10,05,12.90
2019,08,21,10,06,12.90
2019,08,21,10,07,9.60
2019,08,21,10,08,12.90
2019,08,21,10,09,14.50
2019,08,21,10,10,14.50
2019,08,21,10,11,12.90
2019,08,21,10,12,12.90
2019,08,21,10,13,9.60
2019,08,21,10,14,9.60
2019,08,21,10,15,8.10
2019,08,21,10,16,11.30
2019,08,21,10,17,14.50
2019,08,21,10,18,4.80
2019,08,21,10,19,12.90
2019,08,21,10,20,11.30
2019,08,21,10,21,14.50
2019,08,21,10,22,11.30
2019,08,21,10,23,9.60
2019,08,21,10,24,8.10
2019,08,21,10,25,8.10
2019,08,21,10,26,8.10
2019,08,21,10,27,8.10
2019,08,21,10,28,17.70
2019,08,21,10,29,24.20
2019,08,21,10,30,9.60
2019,08,21,10,31,8.10
2019,08,21,10,32,9.60
2019,08,21,10,33,12.90
2019,08,21,10,34,6.40
2019,08,21,10,35,4.80
2019,08,21,10,36,11.30
2019,08,21,10,37,8.10
2019,08,21,10,38,6.40
2019,08,21,10,39,6.40
2019,08,21,10,40,12.90
2019,08,21,10,41,14.50
2019,08,21,10,42,19.30
2019,08,21,10,43,8.10
2019,08,21,10,44,6.40
2019,08,21,10,45,6.40
2019,08,21,10,46,9.60
2019,08,21,10,47,8.10
2019,08,21,10,48,12.90
2019,08,21,10,49,9.60
2019,08,21,10,50,11.30
2019,08,21,10,51,9.60
2019,08,21,10,52,8.10
2019,08,21,10,53,9.60
2019,08,21,10,54,9.60
2019,08,21,10,55,11.30
2019,08,21,10,56,14.50
2019,08,21,10,57,14.50
2019,08,21,10,58,14.50
2019,08,21,10,59,14.50
2019,08,21,11,00,11.30
2019,08,21,11,01,3.20
2019,08,21,11,02,8.10
2019,08,21,11,03,12.90
2019,08,21,11,04,9.60
2019,08,21,11,05,11.30
2019,08,21,11,06,8.10
2019,08,21,11,07,3.20
2019,08,21,11,08,6.40
2019,08,21,11,09,16.10
2019,08,21,11,10,12.90
2019,08,21,11,11,8.10
2019,08,21,11,12,4.80
2019,08,21,11,13,4.80
2019,08,21,11,14,8.10
2019,08,21,11,15,3.20
2019,08,21,11,16,9.60
2019,08,21,11,17,8.10
2019,08,21,11,18,8.10
2019,08,21,11,19,8.10
2019,08,21,11,20,6.40
2019,08,21,11,21,1.60
2019,08,21,11,22,4.80
2019,08,21,11,23,4.80
2019,08,21,11,24,6.40
2019,08,21,11,25,8.10
2019,08,21,11,27,8.10
2019,08,21,11,28,11.30
2019,08,21,11,29,6.40
2019,08,21,11,30,9.60
2019,08,21,11,31,11.30
2019,08,21,11,32,3.20
2019,08,21,11,33,8.10
2019,08,21,11,34,12.90
2019,08,21,11,35,14.50
2019,08,21,11,36,11.30
2019,08,21,11,37,11.30
2019,08,21,11,38,9.60
2019,08,21,11,39,9.60
2019,08,21,11,40,8.10
2019,08,21,11,41,12.90
2019,08,21,11,42,14.50
2019,08,21,11,43,14.50
2019,08,21,11,44,9.60
2019,08,21,11,45,11.30
2019,08,21,11,46,11.30
2019,08,21,11,47,11.30
2019,08,21,11,48,11.30
2019,08,21,11,49,12.90
2019,08,21,11,50,8.10
2019,08,21,11,51,16.10
2019,08,21,11,52,14.50
2019,08,21,11,53,6.40
2019,08,21,11,54,14.50
2019,08,21,11,55,9.60
2019,08,21,11,56,16.10
2019,08,21,11,57,12.90
2019,08,21,11,58,16.10
2019,08,21,11,59,9.60
2019,08,21,12,00,9.60
2019,08,21,12,01,1.60
2019,08,21,12,02,8.10
2019,08,21,12,03,9.60
2019,08,21,12,04,12.90
2019,08,21,12,05,12.90
2019,08,21,12,06,6.40
2019,08,21,12,07,6.40
2019,08,21,12,08,11.30
2019,08,21,12,09,11.30
2019,08,21,12,10,12.90
2019,08,21,12,11,11.30
2019,08,21,12,12,11.30
2019,08,21,12,13,8.10
2019,08,21,12,14,11.30
2019,08,21,12,15,9.60
2019,08,21,12,16,16.10
2019,08,21,12,17,14.50
2019,08,21,12,18,16.10
2019,08,21,12,19,3.20
2019,08,21,12,20,14.50
2019,08,21,12,21,12.90
2019,08,21,12,22,12.90
2019,08,21,12,23,8.10
2019,08,21,12,24,8.10
2019,08,21,12,25,16.10
2019,08,21,12,26,12.90
2019,08,21,12,27,14.50
2019,08,21,12,28,12.90
2019,08,21,12,29,9.60
2019,08,21,12,30,16.10
2019,08,21,12,31,11.30
2019,08,21,12,32,6.40
2019,08,21,12,33,17.70
2019,08,21,12,34,17.70
2019,08,21,12,35,17.70
2019,08,21,12,36,16.10
2019,08,21,12,37,16.10
2019,08,21,12,38,9.60
2019,08,21,12,39,16.10
2019,08,21,12,40,8.10
2019,08,21,12,41,6.40
2019,08,21,12,42,12.90
2019,08,21,12,43,11.30
2019,08,21,12,44,11.30
2019,08,21,12,45,11.30
2019,08,21,12,46,9.60
2019,08,21,12,47,3.20
2019,08,21,12,48,11.30
2019,08,21,12,49,8.10
2019,08,21,12,50,6.40
2019,08,21,12,51,8.10
2019,08,21,12,52,12.90
2019,08,21,12,53,11.30
2019,08,21,12,54,20.90
2019,08,21,12,55,17.70
2019,08,21,12,56,9.60
2019,08,21,12,57,6.40
2019,08,21,12,58,17.70
2019,08,21,12,59,17.70
2019,08,21,13,00,12.90
2019,08,21,13,01,11.30
2019,08,21,13,02,16.10
2019,08,21,13,03,12.90
2019,08,21,13,04,11.30
2019,08,21,13,05,12.90
2019,08,21,13,06,16.10
2019,08,21,13,07,19.30
2019,08,21,13,08,12.90
2019,08,21,13,09,12.90
2019,08,21,13,10,11.30
2019,08,21,13,11,12.90
2019,08,21,13,12,12.90
2019,08,21,13,13,8.10
2019,08,21,13,14,12.90
2019,08,21,13,15,12.90
2019,08,21,13,16,8.10
2019,08,21,13,17,9.60
2019,08,21,13,18,9.60
2019,08,21,13,19,17.70
2019,08,21,13,20,12.90
2019,08,21,13,21,14.50
2019,08,21,13,22,9.60
2019,08,21,13,23,16.10
2019,08,21,13,24,11.30
2019,08,21,13,25,17.70
2019,08,21,13,26,4.80
2019,08,21,13,27,12.90
2019,08,21,13,28,12.90
2019,08,21,13,29,11.30
2019,08,21,13,30,9.60
2019,08,21,13,31,9.60
2019,08,21,13,32,14.50
2019,08,21,13,33,14.50
2019,08,21,13,34,12.90
2019,08,21,13,35,12.90
2019,08,21,13,36,14.50
2019,08,21,13,37,11.30
2019,08,21,13,38,11.30
2019,08,21,13,39,11.30
2019,08,21,13,40,8.10
2019,08,21,13,41,9.60
2019,08,21,13,42,6.40
2019,08,21,13,43,8.10
2019,08,21,13,44,11.30
2019,08,21,13,45,9.60
2019,08,21,13,46,9.60
2019,08,21,13,47,6.40
2019,08,21,13,48,11.30
2019,08,21,13,49,11.30
2019,08,21,13,50,8.10
2019,08,21,13,51,11.30
2019,08,21,13,52,17.70
2019,08,21,13,53,14.50
2019,08,21,13,54,19.30
2019,08,21,13,55,9.60
2019,08,21,13,56,14.50
2019,08,21,13,57,17.70
2019,08,21,13,58,11.30
2019,08,21,13,59,8.10
2019,08,21,14,00,1.60
2019,08,21,14,01,20.90
2019,08,21,14,02,12.90
2019,08,21,14,03,12.90
2019,08,21,14,04,16.10
2019,08,21,14,05,14.50
2019,08,21,14,06,16.10
2019,08,21,14,07,19.30
2019,08,21,14,08,14.50
2019,08,21,14,09,17.70
2019,08,21,14,10,11.30
2019,08,21,14,11,16.10
2019,08,21,14,12,17.70
2019,08,21,14,13,24.20
2019,08,21,14,14,19.30
2019,08,21,14,15,9.60
2019,08,21,14,16,14.50
2019,08,21,14,17,6.40
2019,08,21,14,18,22.50
2019,08,21,14,19,12.90
2019,08,21,14,20,11.30
2019,08,21,14,21,17.70
2019,08,21,14,22,14.50
2019,08,21,14,23,12.90
2019,08,21,14,24,9.60
2019,08,21,14,25,12.90
2019,08,21,14,26,9.60
2019,08,21,14,27,16.10
2019,08,21,14,28,14.50
2019,08,21,14,29,12.90
2019,08,21,14,30,12.90
2019,08,21,14,31,12.90
2019,08,21,14,32,12.90
2019,08,21,14,33,14.50
2019,08,21,14,34,14.50
2019,08,21,14,35,11.30
2019,08,21,14,36,19.30
2019,08,21,14,37,8.10
2019,08,21,14,38,6.40
2019,08,21,14,39,6.40
2019,08,21,14,40,6.40
2019,08,21,14,41,8.10
2019,08,21,14,42,12.90
2019,08,21,14,43,9.60
2019,08,21,14,44,12.90
2019,08,21,14,45,14.50
2019,08,21,14,46,11.30
2019,08,21,14,47,12.90
2019,08,21,14,48,14.50
2019,08,21,14,49,11.30
2019,08,21,14,50,14.50
2019,08,21,14,51,11.30
2019,08,21,14,52,14.50
2019,08,21,14,53,3.20
2019,08,21,14,54,14.50
2019,08,21,14,55,6.40
2019,08,21,14,56,16.10
2019,08,21,14,57,8.10
2019,08,21,14,58,12.90
2019,08,21,14,59,16.10
2019,08,21,15,00,12.90
2019,08,21,15,01,16.10
2019,08,21,15,02,20.90
2019,08,21,15,03,19.30
2019,08,21,15,04,14.50
2019,08,21,15,05,12.90
2019,08,21,15,06,16.10
2019,08,21,15,07,12.90
2019,08,21,15,08,16.10
2019,08,21,15,09,12.90
2019,08,21,15,10,8.10
2019,08,21,15,11,14.50
2019,08,21,15,12,8.10
2019,08,21,15,13,8.10
2019,08,21,15,14,12.90
2019,08,21,15,15,8.10
2019,08,21,15,16,11.30
2019,08,21,15,17,12.90
2019,08,21,15,18,12.90
2019,08,21,15,19,9.60
2019,08,21,15,20,11.30
2019,08,21,15,21,12.90
2019,08,21,15,22,16.10
2019,08,21,15,23,14.50
2019,08,21,15,24,6.40
2019,08,21,15,25,3.20
2019,08,21,15,26,12.90
2019,08,21,15,27,11.30
2019,08,21,15,28,12.90
2019,08,21,15,29,8.10
2019,08,21,15,30,12.90
2019,08,21,15,31,12.90
2019,08,21,15,32,16.10
2019,08,21,15,33,11.30
2019,08,21,15,34,16.10
2019,08,21,15,35,12.90
2019,08,21,15,36,14.50
2019,08,21,15,37,6.40
2019,08,21,15,38,8.10
2019,08,21,15,39,12.90
2019,08,21,15,40,4.80
2019,08,21,15,41,11.30
2019,08,21,15,42,14.50
2019,08,21,15,43,20.90
2019,08,21,15,44,17.70
2019,08,21,15,45,17.70
2019,08,21,15,46,14.50
2019,08,21,15,47,6.40
2019,08,21,15,48,4.80
2019,08,21,15,49,16.10
2019,08,21,15,50,9.60
2019,08,21,15,51,11.30
2019,08,21,15,52,17.70
2019,08,21,15,53,16.10
2019,08,21,15,54,11.30
2019,08,21,15,55,14.50
2019,08,21,15,56,9.60
2019,08,21,15,57,6.40
2019,08,21,15,58,9.60
2019,08,21,15,59,17.70
2019,08,21,16,00,12.90
2019,08,21,16,01,17.70
2019,08,21,16,02,12.90
2019,08,21,16,03,16.10
2019,08,21,16,04,17.70
2019,08,21,16,05,11.30
2019,08,21,16,06,11.30
2019,08,21,16,07,17.70
2019,08,21,16,08,16.10
2019,08,21,16,09,14.50
2019,08,21,16,10,14.50
2019,08,21,16,11,9.60
2019,08,21,16,12,4.80
2019,08,21,16,13,9.60
2019,08,21,16,14,8.10
2019,08,21,16,15,20.90
2019,08,21,16,16,12.90
2019,08,21,16,17,6.40
2019,08,21,16,18,3.20
2019,08,21,16,19,14.50
2019,08,21,16,20,8.10
2019,08,21,16,21,14.50
2019,08,21,16,22,9.60
2019,08,21,16,23,8.10
2019,08,21,16,24,8.10
2019,08,21,16,25,8.10
2019,08,21,16,26,17.70
2019,08,21,16,27,14.50
2019,08,21,16,28,14.50
2019,08,21,16,29,16.10
2019,08,21,16,30,11.30
2019,08,21,16,31,9.60
2019,08,21,16,32,9.60
2019,08,21,16,33,14.50
2019,08,21,16,34,11.30
2019,08,21,16,35,16.10
2019,08,21,16,36,16.10
2019,08,21,16,37,12.90
2019,08,21,16,38,14.50
2019,08,21,16,39,14.50
2019,08,21,16,40,12.90
2019,08,21,16,41,19.30
2019,08,21,16,42,17.70
2019,08,21,16,43,9.60
2019,08,21,16,44,19.30
2019,08,21,16,45,12.90
2019,08,21,16,46,17.70
2019,08,21,16,47,8.10
2019,08,21,16,48,16.10
2019,08,21,16,49,22.50
2019,08,21,16,50,12.90
2019,08,21,16,51,20.90
2019,08,21,16,52,11.30
2019,08,21,16,53,11.30
2019,08,21,16,54,17.70
2019,08,21,16,55,11.30
2019,08,21,16,56,17.70
2019,08,21,16,57,9.60
2019,08,21,16,58,14.50
2019,08,21,16,59,14.50
2019,08,21,17,00,16.10
2019,08,21,17,01,20.90
2019,08,21,17,02,14.50
2019,08,21,17,03,12.90
2019,08,21,17,04,12.90
2019,08,21,17,05,19.30
2019,08,21,17,06,16.10
2019,08,21,17,07,14.50
2019,08,21,17,08,22.50
2019,08,21,17,09,14.50
2019,08,21,17,10,14.50
2019,08,21,17,11,11.30
2019,08,21,17,12,14.50
2019,08,21,17,13,22.50
2019,08,21,17,14,4.80
2019,08,21,17,15,16.10
2019,08,21,17,16,6.40
2019,08,21,17,17,14.50
2019,08,21,17,18,8.10
2019,08,21,17,19,12.90
2019,08,21,17,20,17.70
2019,08,21,17,21,17.70
2019,08,21,17,22,11.30
2019,08,21,17,23,12.90
2019,08,21,17,24,9.60
2019,08,21,17,25,12.90
2019,08,21,17,26,9.60
2019,08,21,17,27,12.90
2019,08,21,17,28,16.10
2019,08,21,17,29,12.90
2019,08,21,17,30,4.80
2019,08,21,17,31,14.50
2019,08,21,17,32,11.30
2019,08,21,17,33,11.30
2019,08,21,17,34,6.40
2019,08,21,17,35,8.10
2019,08,21,17,36,19.30
2019,08,21,17,37,12.90
2019,08,21,17,38,17.70
2019,08,21,17,39,9.60
2019,08,21,17,40,11.30
2019,08,21,17,41,11.30
2019,08,21,17,42,14.50
2019,08,21,17,43,11.30
2019,08,21,17,44,8.10
2019,08,21,17,45,1.60
2019,08,21,17,46,8.10
2019,08,21,17,47,8.10
2019,08,21,17,48,4.80
2019,08,21,17,49,3.20
2019,08,21,17,50,11.30
2019,08,21,17,51,12.90
2019,08,21,17,52,9.60
2019,08,21,17,53,9.60
2019,08,21,17,54,6.40
2019,08,21,17,55,4.80
2019,08,21,17,56,11.30